Location: Strawberry
(45.6646°N, 111.9596°W)
Time: 01:12:55
(UTC+00:00)

Vanguard 1 Rocket - Pass Details

Date: 04 October 2022
Orbit: 650 x 4225 km, 34.3° (Epoch: 05 December)

Event Time Altitude Azimuth Distance (km) Brightness Sun altitude
Rises 03:50:48 0° 246° (WSW) 8,075 12.7 -29.2°
Reaches altitude 10° 03:57:09 10° 242° (WSW) 6,659 12.1 -30.2°
Maximum altitude 04:15:13 49° 176° (S) 2,843 9.5 -32.9°
Enters shadow 04:16:23 48° 163° (SSE) 2,756 9.4 -33.1°
